Theta_e
312 312 312 312 312 312 311 310 310 309 309 308 308 307 307 306 305 306 307 308 308 308 308 309 309 309 309 309 308 308 310 309 309 309 309 309 308 307 306 305 305 305 305 305 304 303 301 300 299 298 298 298
311 311 311 311 310 309 309 308 308 307 306 305 304 304 302 302 301 302 303 304 305 306 305 304 306 308 308 307 307 307 307 308 308 308 308 308 306 305 304 303 303 303 304 304 303 302 300 299 298 297 297 298
308 308 308 307 307 307 306 306 305 304 303 302 301 300 299 299 298 298 299 299 302 302 302 301 302 305 306 305 305 305 305 306 306 306 306 305 304 303 302 301 301 300 302 302 301 300 299 298 296 296 297 297
305 305 305 304 303 302 302 301 301 300 300 298 297 297 297 296 296 295 295 296 296 298 298 298 298 301 304 303 303 302 302 303 303 304 303 303 302 300 299 298 298 298 299 299 299 298 297 296 296 297 296 297
299 299 300 300 300 300 299 298 297 297 296 295 295 294 293 294 295 295 294 293 293 294 294 295 295 297 299 300 299 299 298 299 300 301 301 300 299 297 296 296 295 295 296 297 296 296 295 295 296 296 296 296
297 297 298 297 297 296 296 296 295 295 295 294 295 293 293 293 293 293 293 292 291 292 292 292 293 293 295 297 296 296 295 295 297 297 297 297 296 295 294 293 293 293 294 294 294 293 293 293 294 294 294 295
296 296 296 296 295 295 295 295 295 295 294 294 294 293 293 292 292 292 291 290 290 291 290 290 290 291 292 293 294 293 292 293 294 294 295 294 294 293 292 292 291 291 292 292 292 292 292 292 293 293 293 294
296 296 296 295 295 295 294 294 294 294 293 293 292 292 292 291 291 291 291 289 288 289 291 291 289 289 289 289 290 290 290 290 290 291 291 291 291 290 290 290 290 290 290 290 291 291 291 291 291 292 292 292
295 296 295 295 294 294 294 293 293 292 292 292 292 291 291 291 291 291 290 291 291 291 291 290 290 290 290 290 290 288 289 289 289 289 289 289 289 289 289 289 289 289 289 289 289 289 289 290 290 291 291 291
295 295 294 294 293 292 292 292 291 291 291 291 291 291 290 290 290 290 290 290 290 290 290 289 289 289 289 288 288 288 288 288 288 287 287 288 287 287 287 288 288 288 288 288 288 288 289 289 289 289 289 290
295 295 294 294 293 293 292 291 291 290 290 290 290 290 290 289 289 289 289 289 289 288 289 288 288 287 288 288 287 287 287 286 287 286 286 286 286 287 286 287 287 287 287 287 287 287 288 288 288 288 289 289
294 294 293 292 292 291 290 290 290 289 289 289 289 289 289 288 289 288 288 288 288 288 288 287 287 287 286 286 286 286 286 285 285 285 285 285 286 285 285 286 286 286 286 286 287 286 287 287 287 287 287 288
292 292 292 292 291 290 290 290 289 289 289 289 288 288 288 288 288 288 288 287 287 287 287 287 287 286 286 286 285 285 284 284 284 284 284 284 284 284 284 285 285 285 285 286 286 286 286 286 286 286 287 287
291 291 291 291 290 290 290 289 289 289 288 288 288 287 287 287 287 286 286 286 286 286 286 286 286 286 285 284 284 284 283 283 283 282 283 283 283 283 284 284 284 284 284 285 285 285 285 285 285 286 286 286
290 290 289 290 290 290 289 289 289 288 288 288 287 286 286 286 286 286 286 285 286 286 285 285 285 284 284 283 283 283 282 283 283 282 282 282 282 282 283 283 283 283 283 284 284 284 284 284 284 285 285 285
289 289 289 289 289 288 288 289 288 287 287 287 286 286 285 285 285 285 285 285 285 285 284 284 283 283 283 282 282 282 282 281 282 282 282 282 282 283 283 282 282 283 282 283 283 283 283 283 283 284 284 284
289 289 289 289 289 288 288 288 288 287 286 286 286 285 285 285 285 285 284 284 284 284 284 283 282 282 282 282 281 282 281 281 282 281 281 281 282 282 282 282 282 283 282 282 282 282 282 283 283 283 284 284
288 288 289 289 288 288 287 287 286 286 286 285 285 285 284 284 284 283 283 284 284 283 283 282 282 281 281 281 281 281 281 280 281 280 280 280 281 281 281 280 281 281 281 281 281 282 282 282 282 283 283 283
288 288 288 288 287 287 287 287 286 285 285 285 284 284 283 283 283 283 282 283 282 282 282 281 281 280 280 280 281 280 280 280 280 280 279 279 279 280 279 280 280 280 280 280 280 281 281 281 282 283 283 283
288 287 287 287 286 287 287 286 286 285 285 284 284 283 283 283 282 282 282 282 282 281 281 280 280 280 280 280 280 279 279 279 279 279 279 279 279 277 278 279 279 280 279 279 279 280 281 281 282 282 282 283
287 286 286 286 285 286 286 285 285 284 284 284 283 283 282 282 282 282 281 281 281 281 280 280 280 279 279 279 279 279 278 278 279 278 278 278 278 278 277 278 278 278 278 278 278 279 280 281 281 282 282 283
286 285 285 285 285 285 284 284 285 284 284 283 283 282 282 282 281 281 281 281 281 280 280 279 279 279 278 279 278 278 278 278 278 278 277 276 278 278 277 277 277 277 277 277 278 278 279 280 281 281 282 283
285 285 284 284 284 284 283 284 284 284 283 283 283 282 282 282 281 281 281 280 280 280 279 279 279 278 278 278 278 278 278 278 278 277 277 276 276 278 278 277 277 277 277 277 277 278 279 280 280 281 282 283
284 284 283 282 282 282 283 283 283 283 283 283 282 282 281 281 281 281 280 280 280 279 279 278 278 278 278 278 278 277 277 277 276 276 275 275 276 276 277 277 277 277 276 276 277 278 279 280 280 281 282 282
284 283 283 283 282 282 283 283 283 282 283 282 282 282 281 281 280 280 280 279 279 279 278 278 278 278 277 277 277 277 276 276 276 276 275 275 276 275 275 275 277 276 276 275 276 278 278 279 281 282 282 282
284 285 285 284 283 284 283 283 282 282 282 282 281 281 281 280 280 280 280 279 279 279 278 278 277 277 277 276 277 277 276 275 275 275 274 275 274 276 274 274 276 275 276 274 273 273 274 277 280 282 282 281
284 285 286 285 285 284 284 284 285 283 283 282 280 280 280 280 280 279 279 279 279 278 278 277 277 277 277 276 276 275 275 275 274 274 274 273 273 273 274 274 276 274 275 272 273 274 274 274 274 277 279 280
285 285 285 285 284 284 284 283 282 281 281 281 279 279 279 280 279 279 279 279 279 278 278 278 277 277 277 276 276 275 275 274 273 274 273 273 273 273 271 273 273 275 274 274 273 270 272 272 273 271 275 276
285 284 283 283 282 282 281 281 280 280 279 279 279 279 279 278 279 279 279 278 279 278 278 278 277 277 276 276 275 275 274 274 274 273 274 273 273 272 271 271 273 273 274 273 275 272 270 270 271 272 273 273
284 283 282 281 280 279 279 279 279 279 279 278 278 278 279 279 279 278 278 278 278 278 278 277 277 277 276 276 275 275 275 275 274 273 273 273 273 272 272 272 271 271 274 273 273 273 273 272 269 269 271 271
284 283 283 282 281 282 281 280 281 282 282 281 280 280 279 278 278 278 278 278 278 278 278 277 277 276 276 276 275 275 275 274 273 273 273 273 273 272 273 272 270 271 271 273 272 273 272 272 272 272 270 267
Wind_Speed
17 16 17 18 18 18 17 16 16 16 16 16 16 16 16 17 17 17 17 17 17 17 17 17 16 15 16 16 16 16 16 16 16 16 16 16 16 16 16 16 16 16 15 15 15 15 14 14 14 12 10 7
17 17 18 19 18 18 17 17 17 17 17 17 17 17 16 16 16 17 17 17 17 17 17 17 17 16 16 16 16 16 16 16 16 16 16 16 16 16 16 16 15 16 16 15 15 15 14 13 11 10 8 7
14 18 18 18 18 18 18 17 17 17 17 17 16 16 15 14 15 16 16 15 16 17 17 17 15 17 16 16 17 17 16 16 16 16 15 16 16 15 16 15 14 15 15 15 15 15 14 13 9 8 6 6
11 15 18 18 18 18 17 17 16 16 16 15 14 13 13 12 10 11 11 13 12 15 16 16 15 16 16 16 16 16 16 16 16 16 16 16 16 15 15 14 12 13 14 14 15 15 14 11 9 6 6 7
9 10 13 14 17 17 16 15 15 13 12 11 11 9 9 8 8 7 7 8 8 10 10 14 14 15 15 15 15 15 15 16 16 16 16 16 16 16 15 14 11 11 12 12 14 14 13 10 6 6 6 6
6 7 10 10 9 9 10 10 10 9 8 8 6 7 6 6 6 6 6 7 7 7 8 10 13 13 13 14 14 13 13 14 14 14 14 15 14 14 14 12 7 8 10 12 13 12 11 7 6 7 7 6
6 8 7 8 8 7 9 8 8 7 7 7 7 6 6 6 5 5 6 6 6 4 7 8 10 11 11 12 13 11 10 11 13 12 12 13 12 11 12 7 6 7 7 8 12 11 8 7 7 7 7 6
6 6 6 5 6 6 5 6 6 7 6 6 6 5 5 5 5 4 4 4 4 2 4 4 5 7 7 8 10 12 7 8 10 10 10 11 11 7 6 6 6 6 6 7 7 7 7 7 7 8 7 6
6 6 5 5 5 5 5 5 5 5 5 6 5 5 4 4 4 3 4 4 4 4 4 5 5 5 6 6 6 9 6 6 7 7 7 7 8 7 7 7 7 6 6 6 7 7 7 8 8 7 7 7
6 5 5 5 5 5 5 4 4 4 4 4 5 4 4 3 3 3 4 4 4 4 4 5 5 5 5 5 6 6 5 6 6 6 6 6 6 6 6 6 6 6 6 6 6 6 6 7 7 7 7 7
5 5 5 5 4 4 4 4 4 4 4 4 4 3 4 3 3 3 3 4 4 4 4 5 5 5 5 5 5 6 5 6 6 6 6 6 6 5 6 5 6 5 6 6 6 6 6 6 7 7 7 7
5 5 5 5 5 4 4 3 4 4 4 3 4 4 4 3 3 3 3 4 4 4 4 4 4 4 4 5 5 5 5 6 6 6 6 6 6 6 6 6 6 6 6 6 5 6 6 7 6 7 7 7
5 5 4 4 4 4 3 3 3 3 3 3 3 4 3 3 3 3 3 3 3 3 3 4 4 4 4 4 5 5 5 5 6 6 6 6 6 6 6 6 6 6 6 6 5 6 6 7 7 6 7 7
5 5 5 4 4 4 4 4 4 3 3 3 3 3 4 4 3 3 3 3 3 3 3 3 4 4 4 4 5 5 5 6 5 6 5 6 6 7 6 6 6 6 6 7 6 6 7 7 6 6 6 7
5 5 5 5 4 4 4 4 3 3 3 3 3 3 3 3 3 3 3 3 3 3 3 3 4 4 4 4 5 5 5 5 5 5 5 6 6 6 6 6 6 6 6 6 6 6 7 7 7 7 7 7
5 5 5 4 4 4 4 3 3 3 3 3 3 3 2 2 3 2 2 3 2 3 3 3 4 3 4 4 4 5 5 6 5 5 5 5 5 5 5 5 5 5 6 6 6 7 7 7 7 7 7 7
5 4 4 4 4 4 3 3 3 3 3 3 3 2 3 3 2 2 2 2 2 2 2 3 3 3 3 4 4 5 5 6 5 5 5 6 5 5 5 5 6 5 5 6 6 6 7 7 7 7 7 7
5 5 4 4 4 4 4 3 3 3 3 3 3 3 3 2 3 2 2 2 2 2 2 2 2 3 3 3 4 4 4 5 5 5 6 6 6 6 6 6 6 6 6 6 6 6 7 7 7 7 7 7
6 6 5 5 4 4 4 4 3 3 3 3 3 3 3 2 3 3 2 2 1 1 1 1 2 2 2 3 3 3 4 4 4 4 5 5 6 6 6 5 6 6 6 7 7 7 7 7 7 7 8 7
6 6 5 5 5 5 5 4 4 4 3 3 3 3 3 3 3 2 2 2 1 1 1 1 1 2 2 3 3 3 3 3 3 4 4 4 5 6 6 6 6 6 6 6 7 8 7 7 7 7 7 7
6 6 6 6 5 5 5 4 4 4 4 4 4 3 3 4 3 3 3 2 1 1 1 1 1 1 2 2 2 2 3 3 3 3 4 4 4 4 6 6 6 6 6 6 7 8 8 8 8 7 7 6
6 6 5 5 5 5 5 5 4 4 4 4 4 4 4 5 4 4 3 3 2 2 1 1 0 0 1 1 2 2 2 2 2 3 4 5 4 4 5 5 6 6 6 6 7 8 8 8 7 7 7 6
6 6 5 4 5 6 5 5 4 5 5 4 4 4 5 5 4 4 4 3 3 2 2 1 1 0 0 1 1 1 2 2 2 3 4 4 5 4 4 5 5 5 7 7 8 8 8 7 9 7 5 4
6 6 6 6 6 6 6 6 5 5 5 5 4 5 5 5 4 4 4 4 3 3 2 1 1 1 1 1 1 2 2 2 3 4 5 5 5 6 5 4 4 5 7 8 9 8 7 8 8 7 4 3
8 8 8 7 8 8 8 7 7 6 6 5 5 6 5 5 4 5 5 5 4 4 3 2 2 2 1 1 1 1 1 2 3 3 4 5 5 5 6 5 4 5 7 8 7 6 7 8 7 4 3 3
9 9 9 8 8 8 7 7 7 7 7 6 5 7 6 6 6 6 6 5 5 5 4 4 3 3 2 1 1 1 1 1 2 2 3 4 5 4 4 5 5 5 8 5 7 10 9 6 3 3 3 3
10 9 8 8 6 7 6 6 6 6 6 6 7 7 7 6 6 7 6 6 6 5 5 4 4 3 3 2 1 2 2 1 2 2 3 4 4 6 4 4 3 3 5 5 8 7 8 6 9 4 5 2
10 9 7 5 3 4 5 5 5 5 5 6 7 8 8 7 7 8 6 7 7 5 5 5 4 3 3 2 2 2 2 2 2 2 2 3 4 5 6 5 3 2 2 3 7 5 5 8 7 8 3 4
10 7 6 5 3 3 3 2 5 6 7 8 8 7 8 8 8 8 7 7 7 6 6 6 5 4 3 3 2 2 2 2 2 2 2 3 3 4 5 6 5 3 2 1 3 3 6 4 4 4 7 10
11 10 10 9 9 9 9 9 9 11 12 11 11 10 9 9 9 9 8 8 8 7 6 6 6 5 4 4 3 2 2 2 3 3 3 3 3 4 4 5 6 4 2 2 2 3 4 5 6 8 8 8
11 11 11 13 13 12 12 12 11 10 9 9 9 8 10 9 10 10 9 9 8 8 8 6 6 6 5 4 3 3 3 3 3 3 3 3 3 4 4 4 5 5 4 3 3 3 3 5 6 7 7 6
Wind_Direction
80 81 82 81 80 78 77 75 73 71 69 67 65 62 60 57 54 52 49 46 45 44 40 35 35 36 34 31 30 29 28 27 27 26 25 24 23 23 22 21 21 19 20 22 24 26 25 23 21 21 10 18
78 80 81 80 80 79 77 76 73 70 67 65 62 61 59 57 53 51 48 45 44 41 39 34 32 33 35 32 31 29 27 26 25 25 23 23 21 19 19 19 18 15 14 15 18 18 17 15 17 22 14 16
77 77 78 79 78 77 76 74 73 70 67 63 60 58 55 56 54 50 46 44 42 40 38 33 30 29 33 32 31 29 26 24 23 22 22 20 20 17 13 11 13 14 12 11 11 10 9 4 5 14 9 14
85 78 80 80 79 77 75 73 72 70 69 65 61 57 54 52 55 50 49 43 44 40 39 34 31 30 31 32 31 29 26 23 21 19 18 17 15 14 11 6 4 9 9 9 7 4 2 356 346 6 6 358
84 82 86 81 78 75 72 72 70 69 66 66 59 54 52 58 52 53 46 42 41 42 44 37 35 32 32 33 32 31 28 23 21 19 17 14 12 11 8 4 356 3 4 6 5 359 357 346 356 5 355 350
91 89 82 86 84 79 77 70 72 66 63 59 59 53 52 50 49 49 49 46 39 48 41 45 38 36 34 34 32 31 29 26 21 19 17 14 10 9 7 3 360 357 354 356 359 354 353 353 2 356 350 346
98 96 94 90 90 88 80 75 69 69 61 55 51 47 49 47 47 47 56 44 35 38 52 49 38 34 33 31 28 22 24 25 19 14 14 13 7 6 5 4 2 358 351 348 351 351 356 356 355 346 346 343
107 103 100 96 94 92 88 79 75 69 63 58 50 48 45 48 42 40 46 66 53 29 23 41 42 30 27 27 26 10 11 11 17 5 9 10 4 5 9 4 0 355 352 349 349 348 351 350 346 342 342 343
109 108 102 97 92 87 84 81 76 75 68 60 54 49 55 47 49 39 40 29 27 20 24 20 18 17 16 16 16 9 12 7 4 3 5 4 4 6 3 359 358 353 351 349 347 346 348 343 342 337 338 336
108 113 106 100 92 93 86 81 77 71 70 64 51 48 38 53 49 40 42 36 26 23 22 18 17 16 15 11 13 10 8 6 4 359 4 2 2 359 357 355 352 350 348 345 344 342 344 340 338 335 334 333
110 100 99 93 84 93 91 85 80 78 74 63 56 47 44 34 35 35 34 31 28 26 19 18 14 13 12 8 12 7 5 5 1 360 359 358 355 352 349 347 346 344 344 341 339 339 338 339 332 330 330 328
106 100 100 103 106 94 87 94 92 88 78 82 72 52 41 32 33 30 31 27 25 22 19 20 13 10 11 11 10 4 6 4 358 357 357 353 348 348 346 343 344 344 339 337 338 337 337 335 330 329 325 322
109 113 113 117 110 106 114 104 97 95 101 89 76 68 50 33 31 34 35 29 26 15 23 19 12 9 11 11 9 4 5 6 355 355 353 351 346 346 341 340 344 340 337 337 338 336 334 331 326 323 322 319
129 128 128 124 120 118 128 108 104 115 94 81 75 68 50 39 36 32 22 27 14 18 15 14 13 10 11 12 9 6 4 2 355 350 349 349 344 343 339 340 342 337 335 336 336 337 333 329 324 322 318 316
135 138 132 129 130 129 120 121 127 108 101 91 81 72 59 60 47 43 39 27 15 15 11 14 11 9 7 8 11 7 3 356 350 348 349 348 343 341 337 338 338 336 333 332 334 336 332 326 324 320 317 313
140 139 131 132 131 128 119 129 117 112 105 104 92 80 72 56 48 40 54 36 27 13 17 18 12 11 9 8 6 4 2 350 345 345 344 344 337 332 331 333 336 338 329 331 333 330 327 323 320 317 316 312
149 141 142 144 139 132 142 138 133 123 119 111 109 99 79 66 60 48 37 52 37 24 31 27 14 12 14 10 2 356 354 343 343 344 349 346 338 340 335 337 337 337 329 330 330 327 325 321 315 313 310 306
156 155 154 149 147 143 158 148 143 141 132 129 127 115 101 92 74 59 65 53 62 27 38 35 33 16 11 12 352 351 351 347 350 348 348 346 343 341 340 340 340 337 335 332 329 326 324 317 316 314 307 303
163 163 159 160 156 158 165 154 154 150 145 148 140 138 119 108 97 91 76 58 56 63 38 28 40 21 20 4 341 347 355 345 343 351 345 349 344 336 338 336 335 333 331 329 327 325 322 316 314 310 303 304
169 167 164 162 160 157 167 164 161 157 157 150 148 143 131 126 118 103 100 86 74 75 45 32 22 32 22 346 341 346 345 340 343 353 340 342 342 336 333 333 330 331 326 324 322 320 315 311 310 305 304 306
175 172 170 168 168 162 169 172 168 161 158 161 159 157 150 141 139 132 122 118 114 110 112 54 46 42 16 348 337 344 337 340 346 353 335 334 340 332 324 323 325 325 325 323 315 311 307 304 304 302 305 306
175 177 170 169 166 175 180 179 171 169 169 171 165 162 155 154 155 143 139 142 150 130 131 115 82 44 7 312 326 336 328 342 347 346 337 332 330 332 320 324 329 326 324 318 307 303 302 301 300 300 301 304
179 175 179 171 178 180 188 183 181 177 179 172 171 169 154 165 165 148 155 152 158 157 154 158 147 186 10 295 309 323 318 329 339 342 335 328 325 321 315 313 319 324 318 311 300 293 293 295 297 295 290 290
186 184 187 185 184 191 196 192 182 187 186 178 179 163 170 168 174 159 159 163 161 164 173 175 171 170 220 291 294 311 339 334 350 338 331 327 323 321 317 304 315 327 321 306 294 289 293 287 285 282 272 266
190 190 191 196 199 199 192 191 185 188 185 188 182 169 177 172 179 165 168 172 176 174 173 189 167 195 195 244 263 289 336 348 331 331 328 325 313 315 321 323 331 337 318 305 306 313 307 298 273 250 233 213
198 200 197 191 200 201 188 185 189 191 186 187 176 178 181 185 175 175 181 175 180 179 185 184 183 187 194 227 257 275 289 267 315 295 327 323 313 309 314 311 332 343 327 324 334 327 321 308 290 207 211 233
204 204 204 205 201 196 193 196 199 194 182 178 182 184 186 187 180 181 184 180 183 179 189 186 185 188 178 201 219 256 256 213 290 301 316 318 317 318 306 283 300 3 343 322 320 301 294 317 324 295 228 209
208 208 199 197 207 202 202 199 182 185 183 185 188 192 188 190 187 187 186 183 185 187 190 189 187 182 186 182 188 244 268 269 265 281 298 311 299 298 311 308 310 356 344 335 325 336 328 306 302 308 280 343
203 191 187 185 173 185 187 191 190 194 202 198 196 196 192 194 188 190 189 187 192 189 189 190 191 190 182 181 193 224 246 261 263 285 279 290 281 296 304 307 306 301 286 304 319 313 314 313 276 276 322 328
199 202 200 193 193 200 204 208 198 203 203 193 195 197 190 188 188 190 190 191 192 192 191 192 192 194 189 188 195 205 237 253 251 247 253 281 286 285 283 293 299 296 291 192 274 261 266 290 294 305 308 308
199 205 208 207 206 207 205 210 212 210 205 196 194 187 186 184 186 190 190 192 192 193 194 192 193 195 197 196 201 206 221 228 244 254 251 268 266 285 286 282 287 292 301 280 247 215 249 263 274 282 295 287